Location: Ahstedt
(52.2048°N, 10.1060°E)
Time: 00:55:22
(UTC+00:00)

Cosmos 1953 - Pass Details

Date: 18 January 2026
Orbit: 474 x 489 km, 82.5° (Epoch: 18 February)

Event Time Altitude Azimuth Distance (km) Brightness Sun altitude
Rises 06:33:01 0° 209° (SSW) 2,542 5.7 -7.0°
Reaches altitude 10° 06:35:13 10° 218° (SW) 1,670 4.7 -6.7°
Maximum altitude 06:38:37 37° 287° (WNW) 782 2.6 -6.2°
Drops below altitude 10° 06:42:06 10° 356° (N) 1,694 4.5 -5.7°
Sets 06:44:20 0° 5° (N) 2,584 5.5 -5.4°
